This is the latest recevied weather packets stored in our database for station/object N7WSS. If no packets are shown the sender has not sent any weather packets the latest 10 day(s).
| Time | Temp. | Humidity | Pressure | Rain* | Wind** | Luminosity | Snow |
|---|---|---|---|---|---|---|---|
| 1777413005 | 28.89° C | 14% | 1012.8 hPa | 0 mm | - | - | - |
| 1777412704 | 28.33° C | 14% | 1012.7 hPa | 0 mm | - | - | - |
| 1777412402 | 28.33° C | 15% | 1012.8 hPa | 0 mm | - | - | - |
| 1777412096 | 28.89° C | 15% | 1012.9 hPa | 0 mm | - | - | - |
| 1777411791 | 29.44° C | 15% | 1013 hPa | 0 mm | - | - | - |
| 1777411490 | 28.89° C | 15% | 1013 hPa | 0 mm | - | - | - |
| 1777411190 | 28.33° C | 16% | 1012.9 hPa | 0 mm | - | - | - |
| 1777410885 | 28.33° C | 15% | 1013 hPa | 0 mm | - | - | - |
| 1777410585 | 28.89° C | 15% | 1013 hPa | 0 mm | - | - | - |
| 1777410285 | 28.33° C | 15% | 1013.2 hPa | 0 mm | - | - | - |
| 1777409980 | 28.33° C | 16% | 1013.2 hPa | 0 mm | - | - | - |
| 1777409674 | 28.33° C | 15% | 1013.6 hPa | 0 mm | - | - | - |
| 1777409371 | 28.33° C | 15% | 1013.5 hPa | 0 mm | - | - | - |
| 1777409067 | 28.89° C | 15% | 1013.6 hPa | 0 mm | - | - | - |
| 1777408764 | 28.89° C | 15% | 1013.5 hPa | 0 mm | - | - | - |
| 1777408460 | 28.33° C | 15% | 1013.7 hPa | 0 mm | - | - | - |
| 1777408154 | 28.33° C | 15% | 1013.8 hPa | 0 mm | - | - | - |
| 1777407850 | 28.89° C | 16% | 1013.7 hPa | 0 mm | - | - | - |
| 1777407548 | 28.89° C | 14% | 1013.5 hPa | 0 mm | - | - | - |
| 1777407247 | 29.44° C | 15% | 1013.7 hPa | 0 mm | - | - | - |
| 1777406941 | 28.89° C | 15% | 1013.8 hPa | 0 mm | - | - | - |
| 1777406642 | 27.78° C | 15% | 1013.9 hPa | 0 mm | - | - | - |
| 1777406338 | 27.78° C | 16% | 1013.9 hPa | 0 mm | - | - | - |
| 1777406037 | 28.33° C | 15% | 1013.9 hPa | 0 mm | - | - | - |
| 1777405734 | 27.78° C | 14% | 1013.8 hPa | 0 mm | - | - | - |
* Rain latest hour (hover to see other rain measurements)
** Current wind speed in m/s (hover to see current wind gust speed)